Year,Month,Day,Hour,Minute,Value (Times are PST for temperature in C)
2015,05,26,09,16,15.70
2015,05,26,09,17,15.80
2015,05,26,09,18,15.80
2015,05,26,09,19,15.80
2015,05,26,09,20,15.90
2015,05,26,09,21,15.90
2015,05,26,09,22,16.00
2015,05,26,09,23,16.00
2015,05,26,09,24,16.10
2015,05,26,09,25,16.10
2015,05,26,09,26,16.10
2015,05,26,09,27,16.10
2015,05,26,09,28,16.20
2015,05,26,09,29,16.20
2015,05,26,09,30,16.20
2015,05,26,09,31,16.20
2015,05,26,09,32,16.30
2015,05,26,09,33,16.30
2015,05,26,09,34,16.30
2015,05,26,09,35,16.30
2015,05,26,09,36,16.30
2015,05,26,09,37,16.40
2015,05,26,09,38,16.40
2015,05,26,09,39,16.40
2015,05,26,09,40,16.40
2015,05,26,09,41,16.40
2015,05,26,09,42,16.50
2015,05,26,09,43,16.50
2015,05,26,09,44,16.50
2015,05,26,09,45,16.50
2015,05,26,09,46,16.50
2015,05,26,09,47,16.50
2015,05,26,09,48,16.50
2015,05,26,09,49,16.50
2015,05,26,09,50,16.50
2015,05,26,09,51,16.60
2015,05,26,09,52,16.60
2015,05,26,09,53,16.60
2015,05,26,09,54,16.60
2015,05,26,09,55,16.70
2015,05,26,09,56,16.70
2015,05,26,09,57,16.70
2015,05,26,09,58,16.70
2015,05,26,09,59,16.70
2015,05,26,10,00,16.80
2015,05,26,10,01,16.80
2015,05,26,10,02,16.80
2015,05,26,10,03,16.80
2015,05,26,10,04,16.80
2015,05,26,10,05,16.80
2015,05,26,10,06,16.80
2015,05,26,10,07,16.80
2015,05,26,10,08,16.80
2015,05,26,10,09,16.80
2015,05,26,10,10,16.80
2015,05,26,10,11,16.80
2015,05,26,10,12,16.80
2015,05,26,10,13,16.80
2015,05,26,10,14,16.90
2015,05,26,10,15,16.90
2015,05,26,10,16,17.00
2015,05,26,10,17,17.00
2015,05,26,10,18,17.10
2015,05,26,10,19,17.10
2015,05,26,10,20,17.20
2015,05,26,10,21,17.20
2015,05,26,10,22,17.20
2015,05,26,10,23,17.20
2015,05,26,10,24,17.20
2015,05,26,10,25,17.20
2015,05,26,10,26,17.20
2015,05,26,10,27,17.20
2015,05,26,10,28,17.30
2015,05,26,10,29,17.30
2015,05,26,10,30,17.30
2015,05,26,10,31,17.40
2015,05,26,10,32,17.30
2015,05,26,10,33,17.30
2015,05,26,10,34,17.30
2015,05,26,10,35,17.30
2015,05,26,10,36,17.30
2015,05,26,10,37,17.30
2015,05,26,10,38,17.30
2015,05,26,10,39,17.30
2015,05,26,10,40,17.30
2015,05,26,10,41,17.30
2015,05,26,10,42,17.30
2015,05,26,10,43,17.30
2015,05,26,10,44,17.40
2015,05,26,10,45,17.40
2015,05,26,10,46,17.40
2015,05,26,10,47,17.40
2015,05,26,10,48,17.40
2015,05,26,10,49,17.40
2015,05,26,10,50,17.40
2015,05,26,10,51,17.40
2015,05,26,10,52,17.40
2015,05,26,10,53,17.40
2015,05,26,10,54,17.40
2015,05,26,10,55,17.40
2015,05,26,10,56,17.40
2015,05,26,10,57,17.40
2015,05,26,10,58,17.40
2015,05,26,10,59,17.40
2015,05,26,11,00,17.40
2015,05,26,11,01,17.40
2015,05,26,11,02,17.40
2015,05,26,11,03,17.40
2015,05,26,11,04,17.40
2015,05,26,11,05,17.40
2015,05,26,11,06,17.40
2015,05,26,11,07,17.40
2015,05,26,11,08,17.40
2015,05,26,11,09,17.40
2015,05,26,11,10,17.40
2015,05,26,11,11,17.40
2015,05,26,11,12,17.40
2015,05,26,11,13,17.40
2015,05,26,11,14,17.40
2015,05,26,11,15,17.40
2015,05,26,11,16,17.50
2015,05,26,11,17,17.70
2015,05,26,11,18,17.70
2015,05,26,11,19,17.80
2015,05,26,11,20,17.90
2015,05,26,11,21,17.90
2015,05,26,11,22,18.00
2015,05,26,11,23,18.10
2015,05,26,11,24,18.10
2015,05,26,11,25,18.20
2015,05,26,11,26,18.20
2015,05,26,11,27,18.10
2015,05,26,11,28,18.10
2015,05,26,11,29,18.10
2015,05,26,11,30,18.10
2015,05,26,11,31,18.00
2015,05,26,11,32,18.00
2015,05,26,11,33,18.10
2015,05,26,11,34,18.10
2015,05,26,11,35,18.10
2015,05,26,11,36,18.10
2015,05,26,11,37,18.10
2015,05,26,11,38,18.10
2015,05,26,11,39,18.00
2015,05,26,11,40,18.00
2015,05,26,11,41,18.10
2015,05,26,11,42,18.10
2015,05,26,11,43,18.10
2015,05,26,11,44,18.10
2015,05,26,11,45,18.10
2015,05,26,11,46,18.10
2015,05,26,11,47,18.20
2015,05,26,11,48,18.20
2015,05,26,11,49,18.20
2015,05,26,11,50,18.20
2015,05,26,11,51,18.20
2015,05,26,11,52,18.20
2015,05,26,11,53,18.30
2015,05,26,11,54,18.40
2015,05,26,11,55,18.50
2015,05,26,11,56,18.60
2015,05,26,11,57,18.70
2015,05,26,11,58,18.70
2015,05,26,11,59,18.70
2015,05,26,12,00,18.80
2015,05,26,12,01,18.80
2015,05,26,12,02,18.80
2015,05,26,12,03,18.90
2015,05,26,12,04,18.90
2015,05,26,12,05,18.90
2015,05,26,12,06,18.90
2015,05,26,12,07,18.80
2015,05,26,12,08,18.80
2015,05,26,12,09,18.80
2015,05,26,12,10,18.90
2015,05,26,12,11,19.00
2015,05,26,12,12,19.00
2015,05,26,12,13,19.10
2015,05,26,12,14,19.20
2015,05,26,12,15,19.30
2015,05,26,12,16,19.30
2015,05,26,12,17,19.30
2015,05,26,12,18,19.40
2015,05,26,12,19,19.50
2015,05,26,12,20,19.50
2015,05,26,12,21,19.60
2015,05,26,12,22,19.60
2015,05,26,12,23,19.60
2015,05,26,12,24,19.60
2015,05,26,12,25,19.70
2015,05,26,12,26,19.80
2015,05,26,12,27,19.80
2015,05,26,12,28,19.80
2015,05,26,12,29,19.80
2015,05,26,12,30,19.80
2015,05,26,12,31,19.90
2015,05,26,12,32,20.00
2015,05,26,12,33,20.10
2015,05,26,12,34,20.10
2015,05,26,12,35,20.10
2015,05,26,12,36,20.10
2015,05,26,12,37,20.10
2015,05,26,12,38,20.10
2015,05,26,12,39,20.00
2015,05,26,12,40,19.90
2015,05,26,12,41,19.80
2015,05,26,12,42,19.70
2015,05,26,12,43,19.60
2015,05,26,12,44,19.60
2015,05,26,12,45,19.50
2015,05,26,12,46,19.40
2015,05,26,12,47,19.20
2015,05,26,12,48,19.10
2015,05,26,12,49,19.00
2015,05,26,12,50,18.80
2015,05,26,12,51,18.80
2015,05,26,12,52,18.80
2015,05,26,12,53,19.00
2015,05,26,12,54,19.10
2015,05,26,12,55,19.20
2015,05,26,12,56,19.20
2015,05,26,12,57,19.10
2015,05,26,12,58,18.90
2015,05,26,12,59,18.90
2015,05,26,13,00,18.90
2015,05,26,13,01,18.90
2015,05,26,13,02,19.00
2015,05,26,13,03,19.10
2015,05,26,13,04,19.20
2015,05,26,13,05,19.50
2015,05,26,13,06,19.80
2015,05,26,13,07,19.90
2015,05,26,13,08,19.90
2015,05,26,13,09,19.80
2015,05,26,13,10,19.80
2015,05,26,13,11,19.80
2015,05,26,13,12,19.80
2015,05,26,13,13,19.80
2015,05,26,13,14,19.80
2015,05,26,13,15,19.80
2015,05,26,13,16,19.70
2015,05,26,13,17,19.60
2015,05,26,13,18,19.50
2015,05,26,13,19,19.50
2015,05,26,13,20,19.50
2015,05,26,13,21,19.50
2015,05,26,13,22,19.60
2015,05,26,13,23,19.60
2015,05,26,13,24,19.70
2015,05,26,13,25,19.80
2015,05,26,13,26,19.90
2015,05,26,13,27,20.10
2015,05,26,13,28,20.20
2015,05,26,13,29,20.20
2015,05,26,13,30,20.10
2015,05,26,13,31,19.90
2015,05,26,13,32,19.80
2015,05,26,13,33,19.80
2015,05,26,13,34,19.70
2015,05,26,13,35,19.70
2015,05,26,13,36,19.80
2015,05,26,13,37,20.00
2015,05,26,13,38,20.10
2015,05,26,13,39,20.30
2015,05,26,13,40,20.30
2015,05,26,13,41,20.30
2015,05,26,13,42,20.40
2015,05,26,13,43,20.50
2015,05,26,13,44,20.60
2015,05,26,13,45,20.60
2015,05,26,13,46,20.50
2015,05,26,13,47,20.20
2015,05,26,13,48,19.90
2015,05,26,13,49,19.90
2015,05,26,13,50,19.90
2015,05,26,13,51,20.00
2015,05,26,13,52,20.10
2015,05,26,13,53,20.20
2015,05,26,13,54,20.40
2015,05,26,13,55,20.50
2015,05,26,13,56,20.50
2015,05,26,13,57,20.60
2015,05,26,13,58,20.60
2015,05,26,13,59,20.60
2015,05,26,14,00,20.50
2015,05,26,14,01,20.60
2015,05,26,14,02,20.60
2015,05,26,14,03,20.70
2015,05,26,14,04,20.70
2015,05,26,14,05,20.70
2015,05,26,14,06,20.60
2015,05,26,14,07,20.80
2015,05,26,14,08,21.00
2015,05,26,14,09,21.10
2015,05,26,14,10,21.10
2015,05,26,14,11,21.20
2015,05,26,14,12,21.20
2015,05,26,14,13,21.30
2015,05,26,14,14,21.40
2015,05,26,14,15,21.40
2015,05,26,14,16,21.40
2015,05,26,14,17,21.30
2015,05,26,14,18,21.20
2015,05,26,14,19,21.20
2015,05,26,14,20,21.10
2015,05,26,14,21,21.10
2015,05,26,14,22,21.20
2015,05,26,14,23,21.30
2015,05,26,14,24,21.40
2015,05,26,14,25,21.50
2015,05,26,14,26,21.60
2015,05,26,14,27,21.70
2015,05,26,14,28,21.70
2015,05,26,14,29,21.50
2015,05,26,14,30,21.40
2015,05,26,14,31,21.30
2015,05,26,14,32,21.40
2015,05,26,14,33,21.50
2015,05,26,14,34,21.50
2015,05,26,14,35,21.60
2015,05,26,14,36,21.70
2015,05,26,14,37,21.70
2015,05,26,14,38,21.60
2015,05,26,14,39,21.50
2015,05,26,14,40,21.40
2015,05,26,14,41,21.30
2015,05,26,14,42,21.30
2015,05,26,14,43,21.20
2015,05,26,14,44,21.10
2015,05,26,14,45,20.90
2015,05,26,14,46,20.80
2015,05,26,14,47,20.70
2015,05,26,14,48,20.60
2015,05,26,14,49,20.40
2015,05,26,14,50,20.10
2015,05,26,14,51,19.90
2015,05,26,14,52,19.70
2015,05,26,14,53,19.60
2015,05,26,14,54,19.50
2015,05,26,14,55,19.30
2015,05,26,14,56,19.30
2015,05,26,14,57,19.20
2015,05,26,14,58,19.30
2015,05,26,14,59,19.30
2015,05,26,15,00,19.40
2015,05,26,15,01,19.50
2015,05,26,15,02,19.70
2015,05,26,15,03,19.80
2015,05,26,15,04,20.00
2015,05,26,15,05,20.10
2015,05,26,15,06,20.20
2015,05,26,15,07,20.10
2015,05,26,15,08,20.10
2015,05,26,15,09,20.20
2015,05,26,15,10,20.20
2015,05,26,15,11,20.20
2015,05,26,15,12,20.20
2015,05,26,15,13,20.10
2015,05,26,15,14,20.10
2015,05,26,15,15,20.00
2015,05,26,15,16,19.90
2015,05,26,15,17,19.90
2015,05,26,15,18,19.80
2015,05,26,15,19,19.90
2015,05,26,15,20,20.00
2015,05,26,15,21,20.00
2015,05,26,15,22,20.20
2015,05,26,15,23,20.30
2015,05,26,15,24,20.50
2015,05,26,15,25,20.60
2015,05,26,15,26,20.70
2015,05,26,15,27,20.80
2015,05,26,15,28,21.00
2015,05,26,15,29,21.10
2015,05,26,15,30,21.10
2015,05,26,15,31,21.20
2015,05,26,15,32,21.30
2015,05,26,15,33,21.50
2015,05,26,15,34,21.50
2015,05,26,15,35,21.50
2015,05,26,15,36,21.30
2015,05,26,15,37,21.20
2015,05,26,15,38,21.20
2015,05,26,15,39,21.20
2015,05,26,15,40,21.20
2015,05,26,15,41,21.20
2015,05,26,15,42,21.30
2015,05,26,15,43,21.40
2015,05,26,15,44,21.50
2015,05,26,15,45,21.50
2015,05,26,15,46,21.50
2015,05,26,15,47,21.50
2015,05,26,15,48,21.60
2015,05,26,15,49,21.70
2015,05,26,15,50,21.90
2015,05,26,15,51,22.10
2015,05,26,15,52,22.10
2015,05,26,15,53,22.00
2015,05,26,15,54,21.90
2015,05,26,15,55,21.90
2015,05,26,15,56,21.90
2015,05,26,15,57,21.80
2015,05,26,15,58,21.80
2015,05,26,15,59,21.90
2015,05,26,16,00,22.00
2015,05,26,16,01,21.90
2015,05,26,16,02,21.90
2015,05,26,16,03,22.00
2015,05,26,16,04,22.00
2015,05,26,16,05,22.10
2015,05,26,16,06,22.10
2015,05,26,16,07,22.20
2015,05,26,16,08,22.20
2015,05,26,16,09,22.10
2015,05,26,16,10,21.90
2015,05,26,16,11,21.80
2015,05,26,16,12,21.70
2015,05,26,16,13,21.60
2015,05,26,16,14,21.60
2015,05,26,16,15,21.50
2015,05,26,16,16,21.40
2015,05,26,16,17,21.20
2015,05,26,16,18,21.10
2015,05,26,16,19,21.10
2015,05,26,16,20,21.10
2015,05,26,16,21,21.30
2015,05,26,16,22,21.30
2015,05,26,16,23,21.30
2015,05,26,16,24,21.20
2015,05,26,16,25,21.30
2015,05,26,16,26,21.40
2015,05,26,16,27,21.50
2015,05,26,16,28,21.60
2015,05,26,16,29,21.70
2015,05,26,16,30,21.60
2015,05,26,16,31,21.50
2015,05,26,16,32,21.50
2015,05,26,16,33,21.50
2015,05,26,16,34,21.40
2015,05,26,16,35,21.30
2015,05,26,16,36,21.30
2015,05,26,16,37,21.30
2015,05,26,16,38,21.30
2015,05,26,16,39,21.30
2015,05,26,16,40,21.40
2015,05,26,16,41,21.50
2015,05,26,16,42,21.70
2015,05,26,16,43,21.70
2015,05,26,16,44,21.80
2015,05,26,16,45,21.80
2015,05,26,16,46,21.70
2015,05,26,16,47,21.70
2015,05,26,16,48,21.70
2015,05,26,16,49,21.80
2015,05,26,16,50,21.80
2015,05,26,16,51,21.80
2015,05,26,16,52,21.90
2015,05,26,16,53,21.90
2015,05,26,16,54,22.00
2015,05,26,16,55,22.00
2015,05,26,16,56,22.00
2015,05,26,16,57,21.80
2015,05,26,16,58,21.60
2015,05,26,16,59,21.60
2015,05,26,17,00,21.60
2015,05,26,17,01,21.50
2015,05,26,17,02,21.50
2015,05,26,17,03,21.40
2015,05,26,17,04,21.30
2015,05,26,17,05,21.20
2015,05,26,17,06,21.20
2015,05,26,17,07,21.20
2015,05,26,17,08,21.20
2015,05,26,17,09,21.20
2015,05,26,17,10,21.20
2015,05,26,17,11,21.20
2015,05,26,17,12,21.20
2015,05,26,17,13,21.20
2015,05,26,17,14,21.20
2015,05,26,17,15,21.30
2015,05,26,17,16,21.30
2015,05,26,17,17,21.30
2015,05,26,17,18,21.30
2015,05,26,17,19,21.30
2015,05,26,17,20,21.30
2015,05,26,17,21,21.30
2015,05,26,17,22,21.30
2015,05,26,17,23,21.40
2015,05,26,17,24,21.50
2015,05,26,17,25,21.60
2015,05,26,17,26,21.80
2015,05,26,17,27,21.80
2015,05,26,17,28,21.90
2015,05,26,17,29,22.00
2015,05,26,17,30,22.00
2015,05,26,17,31,22.20
2015,05,26,17,32,22.30
2015,05,26,17,33,22.30
2015,05,26,17,34,22.30
2015,05,26,17,35,22.20
2015,05,26,17,36,22.00
2015,05,26,17,37,21.80
2015,05,26,17,38,21.70
2015,05,26,17,39,21.60
2015,05,26,17,40,21.50
2015,05,26,17,41,21.40
2015,05,26,17,42,21.40
2015,05,26,17,43,21.40
2015,05,26,17,44,21.40
2015,05,26,17,45,21.40
2015,05,26,17,46,21.40
2015,05,26,17,47,21.40
2015,05,26,17,48,21.50
2015,05,26,17,49,21.60
2015,05,26,17,50,21.70
2015,05,26,17,51,21.70
2015,05,26,17,52,21.80
2015,05,26,17,53,21.80
2015,05,26,17,54,21.80
2015,05,26,17,55,21.60
2015,05,26,17,56,21.50
2015,05,26,17,57,21.30
2015,05,26,17,58,21.30
2015,05,26,17,59,21.30
2015,05,26,18,00,21.40
2015,05,26,18,01,21.40
2015,05,26,18,02,21.40
2015,05,26,18,03,21.50
2015,05,26,18,04,21.60
2015,05,26,18,05,21.70
2015,05,26,18,06,21.80
2015,05,26,18,07,21.90
2015,05,26,18,08,22.00
2015,05,26,18,09,22.00
2015,05,26,18,10,22.10
2015,05,26,18,11,22.10
2015,05,26,18,12,22.10
2015,05,26,18,13,22.00
2015,05,26,18,14,22.00
2015,05,26,18,15,21.90
2015,05,26,18,16,21.80
2015,05,26,18,17,21.80
2015,05,26,18,18,21.80
2015,05,26,18,19,21.70
2015,05,26,18,20,21.60
2015,05,26,18,21,21.50
2015,05,26,18,22,21.50
2015,05,26,18,23,21.50
2015,05,26,18,24,21.40
2015,05,26,18,25,21.40
2015,05,26,18,26,21.40
2015,05,26,18,27,21.40
2015,05,26,18,28,21.40
2015,05,26,18,29,21.40
2015,05,26,18,30,21.30
2015,05,26,18,31,21.30
2015,05,26,18,32,21.30
2015,05,26,18,33,21.30
2015,05,26,18,34,21.30
2015,05,26,18,35,21.30
2015,05,26,18,36,21.30
2015,05,26,18,37,21.30
2015,05,26,18,38,21.30
2015,05,26,18,39,21.30
2015,05,26,18,40,21.30
2015,05,26,18,41,21.20
2015,05,26,18,42,21.20
2015,05,26,18,43,21.30
2015,05,26,18,44,21.30
2015,05,26,18,45,21.30
2015,05,26,18,46,21.30
2015,05,26,18,47,21.30
2015,05,26,18,48,21.30
2015,05,26,18,49,21.20
2015,05,26,18,50,21.20
2015,05,26,18,51,21.20
2015,05,26,18,52,21.20
2015,05,26,18,53,21.20
2015,05,26,18,54,21.20
2015,05,26,18,55,21.10
2015,05,26,18,56,21.00
2015,05,26,18,57,20.90
2015,05,26,18,58,20.80
2015,05,26,18,59,20.70
2015,05,26,19,00,20.60
2015,05,26,19,01,20.60
2015,05,26,19,02,20.50
2015,05,26,19,03,20.40
2015,05,26,19,04,20.40
2015,05,26,19,05,20.30
2015,05,26,19,06,20.30
2015,05,26,19,07,20.20
2015,05,26,19,08,20.20
2015,05,26,19,09,20.10
2015,05,26,19,10,20.00
2015,05,26,19,11,20.00
2015,05,26,19,12,19.90
2015,05,26,19,13,19.80
2015,05,26,19,14,19.80
2015,05,26,19,15,19.70
2015,05,26,19,16,19.70
2015,05,26,19,17,19.60
2015,05,26,19,18,19.60
2015,05,26,19,19,19.60
2015,05,26,19,20,19.60
2015,05,26,19,21,19.50
2015,05,26,19,22,19.50
2015,05,26,19,23,19.50
2015,05,26,19,24,19.50
2015,05,26,19,25,19.50
2015,05,26,19,26,19.50
2015,05,26,19,27,19.50
2015,05,26,19,28,19.40
2015,05,26,19,29,19.40
2015,05,26,19,30,19.40
2015,05,26,19,31,19.40
2015,05,26,19,32,19.30
2015,05,26,19,33,19.30
2015,05,26,19,34,19.30
2015,05,26,19,35,19.30
2015,05,26,19,36,19.30
2015,05,26,19,37,19.30
2015,05,26,19,38,19.30
2015,05,26,19,39,19.30
2015,05,26,19,40,19.20
2015,05,26,19,41,19.20
2015,05,26,19,42,19.20
2015,05,26,19,43,19.20
2015,05,26,19,44,19.20
2015,05,26,19,45,19.20
2015,05,26,19,46,19.20
2015,05,26,19,47,19.20
2015,05,26,19,48,19.20
2015,05,26,19,49,19.20
2015,05,26,19,50,19.20
2015,05,26,19,51,19.20
2015,05,26,19,52,19.20
2015,05,26,19,53,19.20
2015,05,26,19,54,19.20
2015,05,26,19,55,19.10
2015,05,26,19,56,19.10
2015,05,26,19,57,19.10
2015,05,26,19,58,19.10
2015,05,26,19,59,19.10
2015,05,26,20,00,19.10
2015,05,26,20,01,19.00
2015,05,26,20,02,19.00
2015,05,26,20,03,19.00
2015,05,26,20,04,19.00
2015,05,26,20,05,19.00
2015,05,26,20,06,19.00
2015,05,26,20,07,19.00
2015,05,26,20,08,19.00
2015,05,26,20,09,19.00
2015,05,26,20,10,19.00
2015,05,26,20,11,18.90
2015,05,26,20,12,18.90
2015,05,26,20,13,18.90
2015,05,26,20,14,18.90
2015,05,26,20,15,18.90
2015,05,26,20,16,18.80
2015,05,26,20,17,18.80
2015,05,26,20,18,18.80
2015,05,26,20,19,18.80
2015,05,26,20,20,18.70
2015,05,26,20,21,18.70
2015,05,26,20,22,18.70
2015,05,26,20,23,18.60
2015,05,26,20,24,18.50
2015,05,26,20,25,18.50
2015,05,26,20,26,18.40
2015,05,26,20,27,18.40
2015,05,26,20,28,18.40
2015,05,26,20,29,18.40
2015,05,26,20,30,18.40
2015,05,26,20,31,18.40
2015,05,26,20,32,18.40
2015,05,26,20,33,18.40
2015,05,26,20,34,18.40
2015,05,26,20,35,18.40
2015,05,26,20,36,18.40
